FW1248 Weather Reports


Display with metric or nautical units.
time (UTC)temp
F
wind
direction
speed
MPH
gust
MPH
rain 1hr
in
rain 24hr
in
rain mn
in
humidity
%
barometer
mb
20260508033027 39 162 0.0 0.0 0.00 0.00 0.00 36 1018.9
20260508031531 39 162 0.0 0.0 0.00 0.00 0.00 44 1018.7
20260508030025 41 162 0.0 0.0 0.00 0.00 0.00 42 1018.5
20260508024539 42 162 0.0 0.0 0.00 0.00 0.00 37 1018.3
20260508023029 44 162 0.0 0.0 0.00 0.00 0.00 37 1018.0
20260508021524 46 162 0.0 0.0 0.00 0.00 0.00 33 1017.9
20260508020024 48 162 0.0 0.0 0.00 0.00 0.00 33 1017.4
20260508014541 49 162 0.0 0.0 0.00 0.00 0.00 29 1017.3
20260508013022 51 162 0.0 0.0 0.00 0.00 0.00 29 1017.1
20260508011522 53 158 0.0 0.0 0.00 0.00 0.00 26 1017.1
20260508010027 55 150 0.0 5.0 0.00 0.00 0.00 24 1016.9
20260508004523 56 346 0.0 0.0 0.00 0.00 0.00 23 1016.9
20260508003047 58 350 0.0 1.0 0.00 0.00 0.00 19 1016.9
20260508001518 60 28 0.0 0.0 0.00 0.00 0.00 18 1017.0
20260508000016 63 109 0.0 2.0 0.00 0.00 0.00 14 1017.1
20260507234516 64 68 0.0 4.0 0.00 0.00 0.00 13 1017.2
20260507233019 65 143 0.0 2.0 0.00 0.00 0.00 13 1017.3
20260507231515 66 71 0.0 3.0 0.00 0.00 0.00 13 1017.3
20260507230015 65 149 0.0 7.0 0.00 0.00 0.00 13 1017.4
20260507224513 66 308 0.0 4.0 0.00 0.00 0.00 14 1017.9
20260507223009 66 67 1.0 11.0 0.00 0.00 0.00 12 1017.8
20260507221506 68 146 2.0 7.0 0.00 0.00 0.00 11 1017.8
20260507213044 66 43 3.0 10.0 0.00 0.00 0.00 13 1018.7
20260507211554 68 159 3.0 8.0 0.00 0.00 0.00 13 1018.6
20260507210040 67 334 0.0 5.0 0.00 0.00 0.00 15 1019.1
20260507204537 65 155 0.0 5.0 0.00 0.00 0.00 18 1019.4
20260507203033 64 124 0.0 5.0 0.00 0.00 0.00 16 1019.7
20260507201532 65 257 0.0 6.0 0.00 0.00 0.00 18 1019.8
20260507200028 63 143 1.0 9.0 0.00 0.00 0.00 18 1019.9
20260507194530 65 324 3.0 7.0 0.00 0.00 0.00 17 1020.7
20260507193033 65 72 2.0 6.0 0.00 0.00 0.00 17 1020.8
20260507191521 63 246 0.0 7.0 0.00 0.00 0.00 16 1020.9
20260507190023 62 205 1.0 4.0 0.00 0.00 0.00 15 1021.0
20260507184519 62 210 3.0 7.0 0.00 0.00 0.00 14 1021.1
20260507183016 61 301 1.0 6.0 0.00 0.00 0.00 15 1021.5
20260507181511 59 197 0.0 5.0 0.00 0.00 0.00 16 1021.7
20260507180011 58 117 1.0 7.0 0.00 0.00 0.00 17 1021.8
20260507174506 58 146 0.0 1.0 0.00 0.00 0.00 22 1021.8
20260507173004 57 63 0.0 3.0 0.00 0.00 0.00 21 1022.1
20260507171607 56 79 0.0 2.0 0.00 0.00 0.00 23 1022.4
20260507170057 55 16 0.0 1.0 0.00 0.00 0.00 27 1023.0
20260507164555 54 195 0.0 0.0 0.00 0.00 0.00 28 1023.1
20260507163052 53 156 0.0 0.0 0.00 0.00 0.00 29 1023.3
20260507161548 51 210 0.0 0.0 0.00 0.00 0.00 32 1023.6
20260507160043 49 221 0.0 0.0 0.00 0.00 0.00 35 1023.8
20260507154538 46 283 0.0 0.0 0.00 0.00 0.00 44 1023.9
20260507153036 42 198 0.0 0.0 0.00 0.00 0.00 50 1024.0
20260507151530 37 136 0.0 0.0 0.00 0.00 0.00 64 1024.0
20260507150025 34 16 0.0 0.0 0.00 0.00 0.00 70 1024.2
20260507144520 31 15 0.0 0.0 0.00 0.00 0.00 67 1024.4
20260507143017 27 20 0.0 0.0 0.00 0.00 0.00 74 1024.5
20260507141517 25 21 0.0 0.0 0.00 0.00 0.00 74 1024.7
20260507140024 23 20 0.0 0.0 0.00 0.00 0.00 76 1024.9
20260507134515 22 20 0.0 0.0 0.00 0.00 0.00 76 1024.9
20260507133015 22 20 0.0 1.0 0.00 0.00 0.00 76 1024.8
20260507131513 20 9 1.0 3.0 0.00 0.00 0.00 80 1024.4
20260507130011 20 354 0.0 1.0 0.00 0.00 0.00 80 1023.9
20260507124513 20 356 0.0 0.0 0.00 0.00 0.00 1023.9
20260507123005 0 0.0 0.0 0.00 0.00 0.00 1024.5
20260507121559 0 11 0.0 0.0 0.00 0.00 0.00 1024.9
20260507120058 21 14 0.0 0.0 0.00 0.00 0.00 79 1024.9
20260507114556 21 13 0.0 0.0 0.00 0.00 0.00 79 1024.8
20260507113053 21 13 0.0 0.0 0.00 0.00 0.00 79 1024.8
20260507111551 22 13 0.0 0.0 0.00 0.00 0.00 78 1024.8
20260507110052 22 13 0.0 0.0 0.00 0.00 0.00 78 1024.5
20260507104547 22 15 0.0 0.0 0.00 0.00 0.00 78 1024.6
20260507103044 22 15 0.0 0.0 0.00 0.00 0.00 78 1024.2
20260507101558 23 13 0.0 0.0 0.00 0.00 0.00 78 1024.0
20260507100040 23 13 0.0 0.0 0.00 0.00 0.00 77 1023.6
20260507094544 23 13 0.0 0.0 0.00 0.00 0.00 75 1023.8
20260507093036 24 12 0.0 0.0 0.00 0.00 0.00 76 1023.7
20260507091551 24 13 0.0 0.0 0.00 0.00 0.00 77 1023.7
20260507090035 24 13 0.0 0.0 0.00 0.00 0.00 76 1023.5
20260507084532 24 1 0.0 0.0 0.00 0.00 0.00 75 1023.7
20260507083031 24 1 0.0 0.0 0.00 0.00 0.00 76 1023.6
20260507081545 25 1 0.0 0.0 0.00 0.00 0.00 76 1023.7
20260507080025 25 1 0.0 0.0 0.00 0.00 0.00 74 1023.8
20260507074529 25 1 0.0 0.0 0.00 0.00 0.00 74 1023.7
20260507073022 25 1 0.0 0.0 0.00 0.00 0.00 73 1023.5
20260507071518 26 1 0.0 0.0 0.00 0.00 0.00 72 1023.3
20260507070016 26 2 0.0 0.0 0.00 0.00 0.00 70 1023.1
20260507064515 26 1 0.0 0.0 0.00 0.00 0.00 70 1023.0
20260507063012 26 1 0.0 0.0 0.00 0.00 0.00 69 1022.8
20260507061525 26 1 0.0 0.0 0.00 0.00 0.00 73 1022.7
20260507060006 27 1 0.0 0.0 0.00 0.00 0.00 72 1022.7
20260507054506 27 1 0.0 0.0 0.00 0.00 0.00 72 1022.5
20260507053003 27 321 0.0 0.0 0.00 0.00 0.00 70 1022.3
20260507051600 28 321 0.0 0.0 0.00 0.00 0.00 68 1022.3
20260507044556 29 321 0.0 0.0 0.00 0.00 0.00 68 1021.6
20260507043054 30 321 0.0 0.0 0.00 0.00 0.00 64 1021.3
20260507041550 30 321 0.0 0.0 0.00 0.00 0.00 63 1020.8
20260507040050 31 321 0.0 0.0 0.00 0.00 0.00 65 1020.7
20260507034548 32 321 0.0 0.0 0.00 0.00 0.00 61 1020.4